[[{"header":{"parameterUnit":"m.s-1","parameterCategory":2,"la1":30.2991,"la2":30.254,"lo1":-89.0895,"lo2":-89.0444,"dy":0.0017,"dx":0.0017,"nx":28,"ny":28,"refTime":"2025-11-06T09:00:00:Z","depth":"0","parameterNumber":2,"parameterNumberName":"U-component_of_CURRENTS"},"data":[0,0,0,0,0,0,0,0,0,0,0,0,0,0,0,0,0,0,0,0,0,0,0,0,0,0,0,0,0,0,0,0,0,0,0,0,0,0,0,0,0,0,0,0,0,0,0,0,0,0,0,0,0,0,0,0,0,0,0.1825,0.1825,0,0.1775,0.1774,0.1773,0.1762,0.1763,0.1763,0.1764,0.1708,0.1706,0.1704,0,0,0,0,0,0,0,0,0,0,0,0,0,0.1923,0.1921,0.1825,0.1825,0.1824,0.1775,0.1774,0.1773,0.1762,0.1763,0.1764,0.1764,0.1709,0.1706,0.1704,0,0,0,0,0,0,0,0,0,0,0,0,0,0.1875,0.1921,0.1825,0.1815,0.1813,0.1775,0.1774,0.1773,0.1762,0.1763,0.1764,0.1765,0.171,0.1707,0.1704,0.1668,0,0,0.1694,0.1693,0,0,0,0,0,0,0,0,0.1878,0.1872,0.1817,0.1815,0.1814,0.1778,0.1788,0.1738,0.1762,0.1779,0.1764,0.1765,0.1732,0.1727,0.1712,0.1665,0.1663,0.1694,0.1692,0.1691,0.169,0,0,0,0,0,0,0,0.1881,0.1874,0.1803,0.1816,0.1814,0.1816,0.181,0.1778,0.175,0.1778,0.1777,0.1775,0.1731,0.1715,0.1711,0.1662,0.1694,0.1692,0.169,0.1689,0.1658,0.1659,0,0,0,0,0,0,0.189,0.1876,0.1805,0.1802,0.1851,0.1814,0.1807,0.1787,0.175,0.1746,0.1774,0.1775,0.172,0.1715,0.1709,0.1726,0.1691,0.1688,0.1687,0.1657,0.1658,0.1659,0,0,0,0,0,0,0.1892,0.1883,0.1807,0.1841,0.1832,0.1811,0.1789,0.1785,0.1779,0.1748,0.1743,0.1773,0.1721,0.1713,0.1703,0.1721,0.1687,0.1684,0.1656,0.1657,0.1659,0.172,0,0,0,0,0,0,0.1895,0.1884,0.1873,0.1841,0.183,0.1796,0.1788,0.1784,0.1776,0.1776,0.1745,0.174,0.1721,0.1708,0.17,0.1717,0.1682,0.1654,0.1656,0.1658,0.1717,0.1723,0.1729,0,0,0,0,0,0.1898,0.1882,0.1872,0.1864,0.1815,0.1796,0.1791,0.1778,0.1776,0.1775,0.1762,0.1741,0.1714,0.1705,0.1696,0.1713,0.1654,0.1656,0.1658,0.1714,0.1722,0.1729,0,0,0,0,0,0,0.192,0.1879,0.1868,0.184,0.1825,0.1796,0.1791,0.1781,0.1767,0.177,0.1743,0.1738,0.1739,0.1715,0.1706,0.1712,0.1684,0.1685,0.173,0.1737,0.1743,0.1749,0.1679,0,0,0,0,0,0.1919,0.1894,0.1865,0.1845,0.1839,0.1815,0.1806,0.1797,0.1781,0.1776,0.1756,0.1741,0.1737,0.173,0.1715,0.1706,0.1706,0.1715,0.1721,0.1727,0.1726,0.1756,0.1765,0.1667,0.1667,0.1667,0,0,0.1925,0.1897,0.1885,0.1849,0.1834,0.1826,0.1811,0.1801,0.1801,0.177,0.1765,0.1757,0.1741,0.1744,0.1742,0.1727,0.1757,0.1729,0.1734,0.1731,0.176,0.1769,0.1778,0.1668,0.1668,0.1668,0,0,0.1922,0.1898,0.1879,0.1868,0.1848,0.1837,0.1837,0.1813,0.1812,0.1804,0.1796,0.1804,0.1775,0.178,0.1777,0.1805,0.179,0.1801,0.1832,0.1862,0.187,0.1877,0.1899,0.1908,0.1802,0.1802,0.1803,0,0.1933,0.1896,0.1875,0.1861,0.1855,0.1845,0.1838,0.1836,0.1814,0.1819,0.1813,0.181,0.1797,0.1817,0.1834,0.182,0.183,0.1805,0.1871,0.1878,0.1884,0.1905,0.1914,0.1806,0.1805,0.1805,0.1805,0,0.1913,0.1894,0.1888,0.1863,0.186,0.1852,0.1851,0.1854,0.1854,0.1853,0.1871,0.1863,0.1864,0.187,0.1859,0.1901,0.1892,0.1878,0.1853,0.1898,0.1917,0.1925,0.181,0.1809,0.1808,0.1807,0,0,0.1903,0.1877,0.1875,0.1868,0.1859,0.1853,0.187,0.1876,0.1892,0.1894,0.1915,0.1927,0.1929,0.1926,0.1922,0.1949,0.2011,0.1936,0.1936,0.196,0.2076,0.1947,0.1943,0.2011,0.2013,0.2014,0.2074,0,0.1892,0.1867,0.1859,0.1855,0.1845,0.1856,0.1871,0.1885,0.1902,0.1924,0.1945,0.1959,0.1949,0.1955,0.1986,0.2002,0.2033,0.1995,0.2026,0.2027,0.1908,0.1948,0.1784,0.1812,0.2082,0.2083,0.2084,0,0.1867,0.1854,0.1842,0.1845,0.1844,0.1847,0.1874,0.1886,0.193,0.1945,0.1977,0.199,0.2034,0.2017,0.2079,0.2056,0.2072,0.2085,0.2088,0.1947,0.1911,0.1808,0.1816,0.1704,0.2097,0.2096,0.2095,0,0.1855,0.1842,0.1831,0.183,0.1836,0.1843,0.1853,0.1891,0.191,0.196,0.1986,0.2033,0.2058,0.2095,0.2118,0.2108,0.2183,0.2169,0.2071,0.2063,0.1916,0.189,0.1815,0.2218,0.2218,0.2218,0.2218,0,0.1836,0.1826,0.1824,0.1818,0.182,0.1831,0.1849,0.1872,0.1915,0.194,0.1991,0.202,0.2081,0.2125,0.2142,0.2124,0.2203,0.2079,0.2068,0.1931,0.1907,0.1794,0.1772,0.222,0.222,0.2219,0.2219,0,0.1814,0.1812,0.1802,0.1808,0.181,0.1811,0.1837,0.1853,0.1899,0.1936,0.1954,0.2031,0.2059,0.2104,0.2162,0.2135,0.2042,0.2117,0.1942,0.1907,0.1659,0.1647,0.1535,0.1509,0.2007,0.2005,0.2002,0,0.1791,0.1784,0.179,0.1786,0.1784,0.1791,0.1797,0.1838,0.1858,0.1929,0.1946,0.1995,0.199,0.202,0.198,0.1966,0.1932,0.1817,0.175,0.1615,0.1597,0.1559,0.1546,0.1601,0.1596,0.1591,0.1588,0,0.1754,0.1763,0.1761,0.1755,0.1755,0.1756,0.1769,0.1782,0.1827,0.1852,0.1872,0.1871,0.1861,0.1749,0.1721,0.1699,0.1652,0.1718,0.1636,0.1308,0.1208,0.1187,0.1601,0.1547,0.1551,0.1554,0.1556,0.1558,0.1727,0.172,0.1722,0.171,0.1713,0.17,0.1676,0.1691,0.1693,0.1679,0.1749,0.1663,0.1544,0.1444,0.1426,0.1228,0.1344,0.1144,0.1158,0.1146,0.1046,0.1352,0.1239,0.1241,0.1243,0.1245,0.1247,0,0.1678,0.1674,0.1669,0.1651,0.1625,0.1644,0.1636,0.1589,0.1541,0.1515,0.1487,0.1256,0.1095,0.0996,0.0789,0.0686,0.0698,0.0649,0.0573,0.061,0.0914,0.0816,0.0534,0.0534,0.0534,0.0534,0.0534,0.0534,0.1651,0.1624,0.1618,0.1556,0.154,0.147,0.1441,0.1381,0.133,0.1148,0.098,0.0899,0.0698,0.0426,0.0237,0.0237,0.023,0.015,0.0262,0.0455,0.0503,0.0549,0.0449,0.0094,0.0094,-0.011,-0.0112,-0.0114]},{"header":{"parameterUnit":"m.s-1","parameterCategory":2,"la1":30.2991,"la2":30.254,"lo1":-89.0895,"lo2":-89.0444,"dy":0.0017,"dx":0.0017,"nx":28,"ny":28,"refTime":"2025-11-06T09:00:00:Z","depth":"0","parameterNumber":3,"parameterNumberName":"V-component_of_CURRENTS"},"data":[0,0,0,0,0,0,0,0,0,0,0,0,0,0,0,0,0,0,0,0,0,0,0,0,0,0,0,0,0,0,0,0,0,0,0,0,0,0,0,0,0,0,0,0,0,0,0,0,0,0,0,0,0,0,0,0,0,0,-0.0209,-0.0209,0,-0.0213,-0.0213,-0.0213,-0.0222,-0.0223,-0.0223,-0.0223,-0.0229,-0.0229,-0.0229,0,0,0,0,0,0,0,0,0,0,0,0,0,-0.0221,-0.022,-0.0209,-0.0209,-0.0209,-0.0213,-0.0213,-0.0213,-0.0222,-0.0223,-0.0223,-0.0223,-0.0229,-0.0229,-0.0229,0,0,0,0,0,0,0,0,0,0,0,0,0,-0.022,-0.022,-0.0209,-0.0213,-0.0214,-0.0213,-0.0213,-0.0213,-0.0222,-0.0223,-0.0223,-0.0223,-0.0229,-0.0229,-0.0229,-0.0226,0,0,-0.023,-0.023,0,0,0,0,0,0,0,0,-0.022,-0.0219,-0.0213,-0.0213,-0.0214,-0.0217,-0.0219,-0.0217,-0.0222,-0.022,-0.0223,-0.0223,-0.0225,-0.0225,-0.0226,-0.0226,-0.0226,-0.023,-0.023,-0.023,-0.023,0,0,0,0,0,0,0,-0.022,-0.0219,-0.0211,-0.0213,-0.0213,-0.0219,-0.0219,-0.0219,-0.0222,-0.022,-0.0221,-0.022,-0.0225,-0.0226,-0.0227,-0.0226,-0.023,-0.023,-0.023,-0.023,-0.0225,-0.0225,0,0,0,0,0,0,-0.0217,-0.0219,-0.0211,-0.0211,-0.0217,-0.0219,-0.0219,-0.0216,-0.0222,-0.0222,-0.022,-0.022,-0.0226,-0.0227,-0.0227,-0.0217,-0.023,-0.023,-0.023,-0.0225,-0.0225,-0.0225,0,0,0,0,0,0,-0.0217,-0.0216,-0.0211,-0.0215,-0.0214,-0.0218,-0.0215,-0.0216,-0.0217,-0.0221,-0.0222,-0.022,-0.0226,-0.0227,-0.0228,-0.0217,-0.023,-0.023,-0.0225,-0.0225,-0.0225,-0.02,0,0,0,0,0,0,-0.0218,-0.0216,-0.0215,-0.0215,-0.0214,-0.0208,-0.0215,-0.0216,-0.0216,-0.0217,-0.0222,-0.0222,-0.0226,-0.0228,-0.0228,-0.0218,-0.023,-0.0226,-0.0225,-0.0225,-0.0201,-0.0199,-0.0198,0,0,0,0,0,-0.0218,-0.0214,-0.0215,-0.0214,-0.0212,-0.0208,-0.0208,-0.0212,-0.0216,-0.0214,-0.022,-0.0222,-0.0226,-0.0228,-0.0228,-0.0217,-0.0226,-0.0225,-0.0225,-0.0202,-0.02,-0.0198,0,0,0,0,0,0,-0.0223,-0.0214,-0.0215,-0.021,-0.0209,-0.0209,-0.0207,-0.0211,-0.0214,-0.0214,-0.0221,-0.0222,-0.0219,-0.0224,-0.0225,-0.0216,-0.0226,-0.0226,-0.0208,-0.0206,-0.0204,-0.0186,-0.023,0,0,0,0,0,-0.0222,-0.0212,-0.0211,-0.0206,-0.0204,-0.0206,-0.0205,-0.0206,-0.0208,-0.0209,-0.0214,-0.0218,-0.0217,-0.0217,-0.0219,-0.0213,-0.0205,-0.0207,-0.0205,-0.0203,-0.0189,-0.0177,-0.0173,-0.0224,-0.0224,-0.0224,0,0,-0.0224,-0.0216,-0.0212,-0.0205,-0.0204,-0.0194,-0.0206,-0.0201,-0.0192,-0.0209,-0.0203,-0.0211,-0.0215,-0.021,-0.0208,-0.0212,-0.0184,-0.0203,-0.0201,-0.0188,-0.0176,-0.0171,-0.0167,-0.0224,-0.0224,-0.0224,0,0,-0.0212,-0.0214,-0.0198,-0.0194,-0.0186,-0.0186,-0.0184,-0.0184,-0.0184,-0.018,-0.0189,-0.019,-0.0194,-0.0191,-0.019,-0.0178,-0.0175,-0.0184,-0.0156,-0.0145,-0.0141,-0.0136,-0.0113,-0.0107,-0.0182,-0.0182,-0.0181,0,-0.0214,-0.0193,-0.0195,-0.0178,-0.0171,-0.018,-0.0163,-0.0164,-0.0166,-0.0157,-0.0175,-0.0169,-0.018,-0.0159,-0.0161,-0.0171,-0.0163,-0.0164,-0.0141,-0.0137,-0.0133,-0.0111,-0.0104,-0.018,-0.018,-0.0181,-0.0181,0,-0.0185,-0.0172,-0.0164,-0.0142,-0.0138,-0.0125,-0.0125,-0.0122,-0.0126,-0.0121,-0.0109,-0.0127,-0.012,-0.0128,-0.0143,-0.0119,-0.0122,-0.0141,-0.0144,-0.0126,-0.0104,-0.0098,-0.0179,-0.0179,-0.0179,-0.018,0,0,-0.0171,-0.0148,-0.0142,-0.0127,-0.0115,-0.0106,-0.0092,-0.0074,-0.0051,-0.0064,-0.0035,-0.0049,-0.0059,-0.0059,-0.0078,-0.0073,-0.0048,-0.0096,-0.0096,-0.0067,-0.0013,-0.0004,0.0003,-0.0067,-0.0066,-0.0065,-0.0006,0,-0.0144,-0.0108,-0.0102,-0.0069,-0.0052,-0.0054,-0.0037,-0.0023,-0.0016,0.0007,-0.0004,0.0012,-0.0032,-0.0029,-0.0032,-0.0044,-0.0031,-0.0061,-0.0039,-0.0038,-0.0028,0.0011,0.0048,0.0104,0.0,0.0002,0.0002,0,-0.0111,-0.0089,-0.0055,-0.0025,-0.0017,-0.0002,0.0032,0.0048,0.0074,0.0079,0.009,0.0083,0.0089,0.0045,0.0048,0.0028,0.0014,0.0004,0.0005,0.0012,-0.0017,0.0067,0.0119,0.0122,0.0012,0.0011,0.001,0,-0.0092,-0.0054,-0.0025,-0.0016,0.0013,0.003,0.0045,0.0074,0.0104,0.013,0.0161,0.0156,0.017,0.0142,0.0111,0.0081,0.0121,0.0077,0.008,0.0081,0.0118,0.012,0.0182,0.0094,0.0094,0.0093,0.0093,0,-0.0063,-0.0037,-0.0013,0.0003,0.0048,0.0055,0.0105,0.0121,0.016,0.0219,0.02,0.0249,0.0195,0.0207,0.0154,0.0148,0.0157,0.0107,0.0102,0.0127,0.0129,0.0136,0.0125,0.0096,0.0095,0.0095,0.0094,0,-0.0046,-0.0032,0.0006,0.0042,0.0058,0.0088,0.0141,0.0183,0.0211,0.0288,0.0302,0.0333,0.0351,0.0307,0.0284,0.0227,0.0219,0.0199,0.0239,0.0237,0.0218,0.0207,0.03,0.0298,0.0211,0.0212,0.0212,0,-0.0033,-0.0012,0.0035,0.0066,0.0084,0.013,0.0169,0.0202,0.0254,0.035,0.0397,0.0444,0.0491,0.0464,0.0382,0.0323,0.0291,0.0302,0.0244,0.0247,0.0231,0.0241,0.0232,0.0308,0.0309,0.031,0.0311,0,-0.0001,0.0012,0.0044,0.0101,0.0145,0.0199,0.0258,0.0305,0.0366,0.0439,0.0546,0.0595,0.0598,0.0574,0.0489,0.0426,0.0326,0.032,0.0319,0.032,0.0343,0.0328,0.0242,0.032,0.0319,0.0319,0.0318,0.0318,0.0025,0.0051,0.009,0.0146,0.0197,0.0263,0.0312,0.0388,0.0478,0.0602,0.0647,0.073,0.0714,0.0612,0.054,0.0434,0.0414,0.0388,0.0379,0.0393,0.0383,0.0323,0.0389,0.0389,0.0388,0.0388,0.0388,0,0.006,0.0087,0.0137,0.0199,0.0255,0.0278,0.0372,0.0428,0.0541,0.0662,0.076,0.08,0.0779,0.0694,0.0578,0.051,0.0471,0.0468,0.0493,0.0478,0.043,0.0424,0.0508,0.0508,0.0508,0.0508,0.0508,0.0508,0.0081,0.0125,0.0145,0.0234,0.0281,0.0356,0.0409,0.0506,0.0595,0.0727,0.0784,0.0817,0.077,0.0726,0.0622,0.0574,0.0545,0.0556,0.0514,0.0474,0.0466,0.0458,0.045,0.0538,0.0538,0.0585,0.0586,0.0586]}],[{"header":{"parameterUnit":"m.s-1","parameterCategory":2,"la1":30.2991,"la2":30.254,"lo1":-89.0895,"lo2":-89.0444,"dy":0.0017,"dx":0.0017,"nx":28,"ny":28,"refTime":"2025-11-06T09:00:00:Z","depth":"2","parameterNumber":2,"parameterNumberName":"U-component_of_CURRENTS"},"data":[0,0,0,0,0,0,0,0,0,0,0,0,0,0,0,0,0,0,0,0,0,0,0,0,0,0,0,0,0,0,0,0,0,0,0,0,0,0,0,0,0,0,0,0,0,0,0,0,0,0,0,0,0,0,0,0,0,0,0.1363,0.1363,0,0.1354,0.1354,0.1353,0.1361,0.1362,0.1363,0.1363,0.1339,0.1338,0.1337,0,0,0,0,0,0,0,0,0,0,0,0,0,0.1407,0.1406,0.1363,0.1363,0.1363,0.1354,0.1354,0.1353,0.1361,0.1362,0.1363,0.1363,0.1339,0.1338,0.1337,0,0,0,0,0,0,0,0,0,0,0,0,0,0.139,0.1406,0.1363,0.1368,0.1368,0.1354,0.1354,0.1353,0.1361,0.1362,0.1363,0.1364,0.134,0.1338,0.1336,0.131,0,0,0.1331,0.1331,0,0,0,0,0,0,0,0,0.1391,0.1388,0.1367,0.1367,0.1368,0.1362,0.1361,0.1339,0.1361,0.1362,0.1363,0.1364,0.1346,0.1344,0.1337,0.1309,0.1308,0.1331,0.133,0.1329,0.1329,0,0,0,0,0,0,0,0.1392,0.1389,0.1357,0.1367,0.1368,0.1377,0.1375,0.1356,0.1348,0.1362,0.1363,0.1365,0.1346,0.1339,0.1337,0.1308,0.1331,0.133,0.1329,0.1328,0.1345,0.1347,0,0,0,0,0,0,0.1395,0.1389,0.1358,0.1357,0.1384,0.1376,0.1373,0.1361,0.1348,0.1348,0.1364,0.1365,0.1342,0.1339,0.1336,0.1365,0.1329,0.1328,0.1327,0.1344,0.1346,0.1347,0,0,0,0,0,0,0.1396,0.1392,0.1358,0.1376,0.1373,0.1374,0.136,0.136,0.1366,0.1351,0.135,0.1372,0.1342,0.1339,0.1338,0.1362,0.1327,0.1325,0.1342,0.1345,0.1347,0.1383,0,0,0,0,0,0,0.1397,0.1392,0.1386,0.1375,0.1372,0.1357,0.136,0.136,0.1367,0.1368,0.1356,0.1354,0.1342,0.1341,0.1336,0.1359,0.1324,0.134,0.1343,0.1346,0.138,0.1386,0.1392,0,0,0,0,0,0.1398,0.139,0.1386,0.1382,0.1363,0.1358,0.1356,0.1359,0.1366,0.1368,0.1368,0.1355,0.1356,0.134,0.1334,0.1357,0.1339,0.1342,0.1346,0.1377,0.1385,0.1391,0,0,0,0,0,0,0.1398,0.1389,0.1385,0.1371,0.1368,0.136,0.1365,0.1365,0.1364,0.1373,0.1358,0.1355,0.1367,0.1358,0.134,0.1375,0.1352,0.1354,0.1378,0.1385,0.139,0.1393,0.1323,0,0,0,0,0,0.1396,0.1397,0.1382,0.1376,0.1375,0.1371,0.1371,0.1373,0.1372,0.1373,0.1365,0.1368,0.1374,0.1376,0.1372,0.1378,0.1375,0.1397,0.1403,0.1407,0.1409,0.1432,0.1439,0.1358,0.1358,0.1358,0,0,0.14,0.1393,0.1396,0.1379,0.1378,0.1378,0.1373,0.138,0.1387,0.1369,0.1379,0.1379,0.138,0.1394,0.14,0.1391,0.1429,0.1412,0.1415,0.1414,0.1436,0.1444,0.145,0.1361,0.136,0.136,0,0,0.1405,0.1397,0.1397,0.1397,0.1397,0.1394,0.1398,0.1393,0.14,0.1406,0.1406,0.1425,0.1419,0.1432,0.1437,0.1473,0.1456,0.1477,0.1508,0.153,0.1537,0.1542,0.1544,0.155,0.1484,0.1484,0.1484,0,0.141,0.1398,0.1398,0.1397,0.14,0.1403,0.1403,0.141,0.1409,0.142,0.1418,0.1439,0.1442,0.1469,0.1492,0.1486,0.1485,0.1477,0.1537,0.1542,0.1547,0.1548,0.1554,0.1486,0.1486,0.1486,0.1485,0,0.1409,0.1406,0.141,0.141,0.1413,0.1418,0.1424,0.1436,0.1448,0.1457,0.1483,0.1487,0.1504,0.1516,0.1515,0.1558,0.1541,0.1536,0.1515,0.1557,0.1556,0.1561,0.1489,0.1488,0.1488,0.1487,0,0,0.1408,0.1407,0.1413,0.1411,0.1421,0.1421,0.1446,0.146,0.1482,0.1497,0.1522,0.1551,0.156,0.1568,0.157,0.1596,0.1639,0.1587,0.1587,0.158,0.1674,0.1578,0.1573,0.1641,0.1643,0.1644,0.1656,0,0.1408,0.1403,0.1408,0.1417,0.1412,0.1431,0.1451,0.1475,0.1498,0.1526,0.1555,0.1579,0.1577,0.1591,0.1619,0.1638,0.1655,0.1635,0.164,0.164,0.1543,0.1577,0.1419,0.1409,0.1661,0.1662,0.1662,0,0.1398,0.14,0.14,0.141,0.1412,0.1426,0.146,0.1478,0.153,0.155,0.1586,0.1603,0.1652,0.164,0.1688,0.1675,0.1678,0.1685,0.1686,0.1585,0.1553,0.1409,0.1409,0.167,0.167,0.1669,0.1669,0,0.1384,0.1391,0.139,0.1396,0.1413,0.143,0.1448,0.1492,0.1517,0.1571,0.1598,0.1643,0.1668,0.1695,0.1714,0.1709,0.1751,0.1746,0.1655,0.1647,0.1507,0.1485,0.1769,0.1769,0.1769,0.1769,0.1769,0,0.1367,0.1371,0.1387,0.1391,0.1405,0.1424,0.1451,0.1482,0.1533,0.1557,0.161,0.1626,0.1685,0.1711,0.1725,0.1701,0.1761,0.166,0.1647,0.1514,0.1493,0.1716,0.171,0.177,0.1769,0.1769,0.1769,0,0.1343,0.1354,0.1356,0.1382,0.1395,0.1408,0.1451,0.147,0.1525,0.1558,0.1579,0.1637,0.1653,0.1687,0.1724,0.1698,0.1698,0.1668,0.1495,0.1461,0.1576,0.1572,0.1575,0.1572,0.1569,0.1567,0.1565,0,0.1325,0.1319,0.1349,0.1356,0.137,0.1394,0.1411,0.1464,0.148,0.1543,0.1551,0.159,0.1571,0.1587,0.1552,0.1536,0.1617,0.1385,0.1345,0.1571,0.1559,0.1559,0.1558,0.1179,0.1174,0.117,0.1167,0,0.1291,0.1305,0.1315,0.1327,0.1344,0.1352,0.1377,0.1389,0.1437,0.1451,0.1451,0.1448,0.1435,0.1327,0.1308,0.1288,0.1378,0.1299,0.1593,0.1244,0.1196,0.1184,0.1197,0.1131,0.1135,0.1137,0.1139,0.1141,0.1273,0.1269,0.1281,0.1285,0.1301,0.1293,0.1273,0.1283,0.1278,0.1261,0.1306,0.1234,0.1224,0.1089,0.1038,0.1004,0.1121,0.1076,0.109,0.1107,0.1051,0.0999,0.0886,0.0888,0.089,0.0892,0.0893,0,0.123,0.1231,0.1232,0.123,0.1209,0.1244,0.123,0.1179,0.1119,0.1103,0.1064,0.0919,0.0812,0.0821,0.069,0.0673,0.0685,0.0654,0.0662,0.0697,0.0728,0.0654,0.0384,0.0382,0.0381,0.038,0,0,0.1212,0.119,0.118,0.1131,0.1132,0.108,0.1053,0.0981,0.0934,0.0832,0.0764,0.0782,0.0783,0.058,0.0536,0.0435,0.0572,0.0409,0.0815,0.0859,0.0889,0.0962,0.0885,0,0,0,0,0]},{"header":{"parameterUnit":"m.s-1","parameterCategory":2,"la1":30.2991,"la2":30.254,"lo1":-89.0895,"lo2":-89.0444,"dy":0.0017,"dx":0.0017,"nx":28,"ny":28,"refTime":"2025-11-06T09:00:00:Z","depth":"2","parameterNumber":3,"parameterNumberName":"V-component_of_CURRENTS"},"data":[0,0,0,0,0,0,0,0,0,0,0,0,0,0,0,0,0,0,0,0,0,0,0,0,0,0,0,0,0,0,0,0,0,0,0,0,0,0,0,0,0,0,0,0,0,0,0,0,0,0,0,0,0,0,0,0,0,0,0.0217,0.0217,0,0.0214,0.0214,0.0215,0.0212,0.0212,0.0212,0.0212,0.0212,0.0212,0.0212,0,0,0,0,0,0,0,0,0,0,0,0,0,0.0204,0.0204,0.0217,0.0217,0.0217,0.0214,0.0214,0.0215,0.0212,0.0212,0.0212,0.0212,0.0212,0.0212,0.0212,0,0,0,0,0,0,0,0,0,0,0,0,0,0.0207,0.0205,0.0217,0.0215,0.0215,0.0214,0.0214,0.0215,0.0212,0.0212,0.0212,0.0212,0.0212,0.0212,0.0212,0.0216,0,0,0.0213,0.0213,0,0,0,0,0,0,0,0,0.0207,0.0208,0.0216,0.0215,0.0215,0.0213,0.021,0.0215,0.0212,0.0214,0.0212,0.0212,0.0212,0.0212,0.0213,0.0216,0.0216,0.0213,0.0213,0.0213,0.0213,0,0,0,0,0,0,0,0.0207,0.0208,0.0217,0.0215,0.0215,0.0208,0.0209,0.0211,0.0215,0.0214,0.0214,0.0212,0.0212,0.0213,0.0213,0.0216,0.0213,0.0213,0.0213,0.0213,0.0214,0.0214,0,0,0,0,0,0,0.0207,0.0208,0.0217,0.0217,0.021,0.0209,0.0209,0.0214,0.0215,0.0214,0.0212,0.0212,0.0213,0.0213,0.0213,0.0222,0.0213,0.0213,0.0213,0.0215,0.0214,0.0214,0,0,0,0,0,0,0.0207,0.0208,0.0217,0.0211,0.0212,0.0209,0.0215,0.0214,0.0213,0.0213,0.0213,0.0211,0.0213,0.0213,0.0215,0.0222,0.0213,0.0213,0.0215,0.0214,0.0214,0.0238,0,0,0,0,0,0,0.0206,0.0208,0.021,0.0211,0.0212,0.0219,0.0215,0.0214,0.0212,0.0212,0.0212,0.0212,0.0213,0.0215,0.0215,0.0222,0.0213,0.0215,0.0215,0.0214,0.0237,0.0238,0.024,0,0,0,0,0,0.0206,0.0211,0.0211,0.0212,0.0216,0.022,0.022,0.0217,0.0212,0.0215,0.0213,0.0212,0.0214,0.0215,0.0215,0.0223,0.0215,0.0215,0.0214,0.0236,0.0238,0.024,0,0,0,0,0,0,0.0208,0.0211,0.0211,0.0217,0.0219,0.0219,0.0218,0.0216,0.0217,0.0215,0.0214,0.0214,0.0219,0.0214,0.0215,0.0221,0.0213,0.0213,0.023,0.0231,0.0233,0.0242,0.0213,0,0,0,0,0,0.0209,0.0211,0.0215,0.0219,0.022,0.0219,0.0218,0.0217,0.0218,0.0217,0.0218,0.0216,0.0219,0.022,0.0221,0.0225,0.0222,0.0228,0.0229,0.023,0.0237,0.0239,0.0242,0.0214,0.0214,0.0214,0,0,0.0208,0.0211,0.0211,0.0218,0.0218,0.0227,0.0219,0.0219,0.0227,0.0217,0.0226,0.0222,0.0221,0.0228,0.0229,0.0225,0.0234,0.023,0.0232,0.0238,0.024,0.0242,0.0245,0.0214,0.0214,0.0214,0,0,0.0211,0.0213,0.0218,0.0222,0.0224,0.0227,0.0227,0.0229,0.0232,0.0236,0.0234,0.0233,0.0234,0.0239,0.024,0.0247,0.0242,0.0244,0.026,0.0262,0.0265,0.0267,0.026,0.0261,0.0244,0.0244,0.0244,0,0.0212,0.0222,0.0219,0.0229,0.0236,0.0229,0.0241,0.0243,0.0245,0.0255,0.0241,0.0249,0.0241,0.026,0.0258,0.0252,0.0249,0.0256,0.0265,0.0267,0.0269,0.0261,0.0262,0.0245,0.0245,0.0245,0.0245,0,0.0222,0.0232,0.0235,0.0248,0.0254,0.0261,0.0267,0.0273,0.027,0.0276,0.0288,0.0276,0.0283,0.0277,0.0269,0.0282,0.0273,0.0268,0.0264,0.0274,0.0264,0.0265,0.0247,0.0246,0.0246,0.0246,0,0,0.0225,0.0241,0.0242,0.0257,0.0267,0.0277,0.029,0.031,0.0329,0.0319,0.0343,0.0333,0.0326,0.0326,0.0315,0.0311,0.0311,0.0295,0.0294,0.0293,0.0311,0.0305,0.0305,0.031,0.031,0.031,0.0296,0,0.0238,0.0262,0.0267,0.0293,0.031,0.0314,0.0333,0.0347,0.0356,0.0375,0.0363,0.0378,0.0346,0.0349,0.0339,0.0326,0.0316,0.0315,0.0297,0.0296,0.0295,0.0308,0.0318,0.0306,0.0297,0.0297,0.0297,0,0.0252,0.0268,0.0296,0.033,0.0338,0.0352,0.0388,0.0405,0.0427,0.0434,0.044,0.0433,0.043,0.0397,0.0374,0.0376,0.0344,0.0324,0.0323,0.0313,0.0293,0.0296,0.0308,0.0299,0.0299,0.0299,0.0299,0,0.0265,0.0293,0.0319,0.0328,0.0359,0.0376,0.0395,0.0423,0.0454,0.0475,0.0496,0.0487,0.0487,0.0451,0.04,0.0391,0.0371,0.0354,0.0317,0.0316,0.0319,0.0318,0.0334,0.0334,0.0334,0.0334,0.0335,0,0.0285,0.0306,0.0326,0.0341,0.038,0.0394,0.0442,0.0461,0.0498,0.0543,0.0528,0.0555,0.0501,0.0481,0.0424,0.0377,0.0388,0.0326,0.0317,0.0326,0.0325,0.0315,0.0313,0.0334,0.0334,0.0334,0.0334,0,0.03,0.031,0.0343,0.0375,0.0388,0.0417,0.0474,0.0512,0.054,0.0597,0.0607,0.0611,0.0587,0.0527,0.0471,0.0416,0.0367,0.0343,0.0351,0.0343,0.0302,0.0301,0.0307,0.0307,0.0307,0.0307,0.0307,0,0.0311,0.0328,0.0366,0.039,0.0405,0.045,0.0487,0.0529,0.0576,0.0635,0.0667,0.066,0.0661,0.0576,0.0487,0.0399,0.0373,0.034,0.0322,0.0311,0.0302,0.0301,0.03,0.0329,0.0329,0.033,0.033,0,0.0334,0.0345,0.0371,0.0416,0.0455,0.0508,0.0563,0.0608,0.0665,0.0705,0.0754,0.0756,0.069,0.0612,0.0492,0.0426,0.0356,0.0338,0.0336,0.0335,0.0331,0.0322,0.0321,0.033,0.033,0.033,0.033,0.033,0.035,0.0372,0.0403,0.0448,0.0495,0.0558,0.0605,0.0665,0.0732,0.0788,0.0799,0.0783,0.0719,0.0556,0.0473,0.0368,0.0369,0.0318,0.0318,0.0318,0.0324,0.032,0.0317,0.0317,0.0317,0.0317,0.0317,0,0.0367,0.0393,0.0435,0.0489,0.0539,0.0562,0.0651,0.0691,0.0758,0.079,0.0814,0.0721,0.0654,0.0559,0.042,0.0348,0.0335,0.0305,0.0313,0.0314,0.0314,0.0319,0.0311,0.0311,0.0311,0.031,0,0,0.0378,0.0414,0.0434,0.051,0.0552,0.0618,0.0666,0.0719,0.0751,0.0763,0.0739,0.0743,0.0654,0.0549,0.0467,0.0388,0.0357,0.036,0.0374,0.0395,0.0396,0.0333,0.0343,0,0,0,0,0]}],[{"header":{"parameterUnit":"m.s-1","parameterCategory":2,"la1":30.2991,"la2":30.254,"lo1":-89.0895,"lo2":-89.0444,"dy":0.0017,"dx":0.0017,"nx":28,"ny":28,"refTime":"2025-11-06T09:00:00:Z","depth":"4","parameterNumber":2,"parameterNumberName":"U-component_of_CURRENTS"},"data":[0,0,0,0,0,0,0,0,0,0,0,0,0,0,0,0,0,0,0,0,0,0,0,0,0,0,0,0,0,0,0,0,0,0,0,0,0,0,0,0,0,0,0,0,0,0,0,0,0,0,0,0,0,0,0,0,0,0,0.0649,0.0649,0,0.0653,0.0653,0.0653,0.0667,0.0668,0.0668,0.0669,0.0707,0.0708,0.0708,0,0,0,0,0,0,0,0,0,0,0,0,0,0.065,0.065,0.0649,0.0649,0.0649,0.0653,0.0653,0.0653,0.0667,0.0668,0.0668,0.0669,0.0707,0.0708,0.0709,0,0,0,0,0,0,0,0,0,0,0,0,0,0.065,0.065,0.0649,0.0658,0.0659,0.0653,0.0653,0.0653,0.0667,0.0668,0.0669,0.0669,0.0707,0.0708,0.0709,0.07,0,0,0.0711,0.0712,0,0,0,0,0,0,0,0,0.065,0.065,0.0657,0.0658,0.0659,0.0662,0.0667,0.0671,0.0667,0.0663,0.0669,0.067,0.0696,0.0698,0.0694,0.0702,0.0703,0.0711,0.0712,0.0712,0.0713,0,0,0,0,0,0,0,0.065,0.0649,0.0649,0.0657,0.0658,0.0661,0.0661,0.0668,0.0675,0.0663,0.0664,0.0667,0.0696,0.0693,0.0695,0.0704,0.0711,0.0712,0.0713,0.0713,0.0771,0.0772,0,0,0,0,0,0,0.0652,0.0649,0.0649,0.0649,0.0658,0.066,0.0661,0.0659,0.0674,0.0677,0.0666,0.0668,0.0691,0.0694,0.0697,0.074,0.0712,0.0713,0.0714,0.077,0.0771,0.0772,0,0,0,0,0,0,0.0652,0.0651,0.0649,0.0651,0.0651,0.066,0.0657,0.0659,0.0674,0.0676,0.068,0.0683,0.0692,0.0696,0.072,0.074,0.0714,0.0714,0.0769,0.077,0.0772,0.0794,0,0,0,0,0,0,0.0651,0.0651,0.0659,0.0651,0.0651,0.0656,0.0657,0.0658,0.0674,0.0677,0.0692,0.0695,0.0693,0.0719,0.0721,0.0741,0.0715,0.0768,0.077,0.0771,0.0792,0.0796,0.08,0,0,0,0,0,0.0651,0.0654,0.0659,0.066,0.0658,0.0656,0.0657,0.0664,0.0675,0.0681,0.0696,0.0695,0.0733,0.072,0.0723,0.0743,0.0767,0.0769,0.0771,0.079,0.0795,0.08,0,0,0,0,0,0,0.0654,0.0655,0.0661,0.0663,0.0667,0.066,0.0669,0.0675,0.069,0.0702,0.0704,0.0708,0.0737,0.0738,0.0724,0.0767,0.0751,0.0754,0.0765,0.077,0.0774,0.0775,0.0716,0,0,0,0,0,0.066,0.0666,0.0664,0.0669,0.0672,0.0675,0.068,0.0687,0.0695,0.0703,0.0714,0.073,0.0744,0.0756,0.0766,0.0787,0.079,0.0804,0.0808,0.0811,0.0815,0.0839,0.0845,0.078,0.078,0.078,0,0,0.0662,0.0665,0.0669,0.0672,0.0676,0.068,0.068,0.0693,0.0704,0.0705,0.0731,0.0744,0.0753,0.0776,0.079,0.0783,0.0831,0.0814,0.0817,0.0819,0.0842,0.0848,0.0853,0.0781,0.0781,0.0781,0,0,0.0665,0.0674,0.0679,0.0685,0.0698,0.0698,0.0707,0.0713,0.0726,0.0749,0.0755,0.0782,0.0801,0.0811,0.0818,0.085,0.0849,0.0859,0.088,0.0903,0.0908,0.0913,0.0919,0.0924,0.0862,0.0862,0.0862,0,0.0672,0.0673,0.0681,0.0688,0.0695,0.0708,0.0715,0.0726,0.0743,0.0758,0.0765,0.0808,0.0817,0.0844,0.0857,0.0859,0.0867,0.0859,0.0907,0.0912,0.0917,0.0922,0.0927,0.0863,0.0863,0.0863,0.0863,0,0.0672,0.0682,0.0686,0.07,0.071,0.0718,0.0732,0.0753,0.0775,0.0787,0.0828,0.0843,0.0871,0.0879,0.0878,0.0917,0.091,0.0907,0.0893,0.0924,0.0928,0.0933,0.0865,0.0865,0.0864,0.0864,0,0,0.0665,0.0682,0.0687,0.0695,0.0718,0.0722,0.075,0.077,0.0794,0.0826,0.0856,0.0888,0.0909,0.0919,0.0927,0.0946,0.0983,0.0944,0.0945,0.0945,0.1026,0.0924,0.092,0.0991,0.0992,0.0993,0.1014,0,0.0665,0.0674,0.0687,0.0704,0.0707,0.0734,0.0754,0.0783,0.0814,0.0848,0.0881,0.0915,0.092,0.0942,0.0966,0.0981,0.0999,0.0977,0.1,0.1001,0.0902,0.0923,0.0997,0.1017,0.1019,0.1019,0.102,0,0.0658,0.0666,0.0677,0.0702,0.0708,0.0728,0.0769,0.0791,0.0843,0.087,0.0918,0.0943,0.0988,0.0984,0.1032,0.1021,0.1029,0.1034,0.1035,0.0935,0.0908,0.0982,0.1029,0.1028,0.1028,0.1027,0.1027,0,0.0638,0.066,0.0668,0.0677,0.0707,0.0731,0.0757,0.0806,0.0831,0.0895,0.0923,0.0977,0.1012,0.1039,0.1056,0.1054,0.1093,0.109,0.1004,0.0997,0.1073,0.1067,0.1121,0.1121,0.1121,0.1121,0.1121,0,0.0619,0.0631,0.0665,0.067,0.0694,0.0727,0.0764,0.08,0.0855,0.0883,0.0941,0.0965,0.1031,0.1057,0.1068,0.1044,0.1106,0.1007,0.0996,0.1081,0.1076,0.1076,0.107,0.1121,0.1121,0.1121,0.1121,0,0.0593,0.0611,0.0626,0.0666,0.0684,0.0707,0.0766,0.0788,0.0848,0.0888,0.0912,0.0976,0.1005,0.1042,0.1081,0.1046,0.104,0.1015,0.1095,0.1089,0.0926,0.0922,0.0924,0.092,0.0917,0.0915,0.0913,0,0.0576,0.058,0.0622,0.0634,0.0658,0.0698,0.0719,0.0782,0.0801,0.0877,0.0884,0.0941,0.0971,0.0947,0.0989,0.0991,0.0977,0.0963,0.095,0.0917,0.0907,0.0908,0.0907,0.0908,0.0908,0.0907,0.0906,0,0.0548,0.0571,0.0584,0.0606,0.0632,0.0648,0.0687,0.0697,0.0759,0.0822,0.0835,0.0848,0.087,0.0891,0.0894,0.0894,0.0967,0.0933,0.0939,0.0927,0.0899,0.0892,0.0895,0.0896,0.0898,0.0898,0.0899,0,0.0537,0.0537,0.0557,0.0571,0.0595,0.0589,0.0614,0.0631,0.066,0.0744,0.0744,0.08,0.0862,0.0839,0.0842,0.0831,0.082,0.0787,0.08,0.0812,0.0762,0.0709,0.0638,0,0,0,0,0,0.0522,0.0512,0.0518,0.0521,0.0538,0.0551,0.0583,0.0607,0.0669,0.0655,0.07,0.0714,0.072,0.0747,0.0714,0.0782,0.0819,0.0737,0.0787,0.084,0.0852,0.0802,0,0,0,0,0,0,0.0509,0.0515,0.0502,0.0474,0.0468,0.0474,0.0493,0.0531,0.0524,0.0597,0.0608,0.0658,0.068,0.0739,0.0701,0.0706,0.0716,0.0773,0.077,0.0834,0.0844,0.0854,0.0807,0,0,0,0,0]},{"header":{"parameterUnit":"m.s-1","parameterCategory":2,"la1":30.2991,"la2":30.254,"lo1":-89.0895,"lo2":-89.0444,"dy":0.0017,"dx":0.0017,"nx":28,"ny":28,"refTime":"2025-11-06T09:00:00:Z","depth":"4","parameterNumber":3,"parameterNumberName":"V-component_of_CURRENTS"},"data":[0,0,0,0,0,0,0,0,0,0,0,0,0,0,0,0,0,0,0,0,0,0,0,0,0,0,0,0,0,0,0,0,0,0,0,0,0,0,0,0,0,0,0,0,0,0,0,0,0,0,0,0,0,0,0,0,0,0,0.0281,0.0281,0,0.0297,0.0297,0.0298,0.0315,0.0315,0.0315,0.0315,0.0334,0.0334,0.0334,0,0,0,0,0,0,0,0,0,0,0,0,0,0.0257,0.0257,0.0281,0.0281,0.0282,0.0297,0.0297,0.0298,0.0315,0.0315,0.0315,0.0315,0.0334,0.0334,0.0334,0,0,0,0,0,0,0,0,0,0,0,0,0,0.027,0.0257,0.0281,0.0292,0.0293,0.0297,0.0297,0.0298,0.0314,0.0315,0.0315,0.0315,0.0333,0.0334,0.0334,0.0331,0,0,0.0336,0.0336,0,0,0,0,0,0,0,0,0.0269,0.0271,0.029,0.0291,0.0292,0.0304,0.0295,0.0309,0.0314,0.0307,0.0315,0.0315,0.0323,0.0325,0.0328,0.0332,0.0333,0.0336,0.0336,0.0336,0.0336,0,0,0,0,0,0,0,0.0268,0.027,0.0288,0.029,0.0291,0.0292,0.0295,0.0298,0.0314,0.0307,0.0309,0.0309,0.0324,0.0327,0.0328,0.0333,0.0336,0.0336,0.0336,0.0337,0.0351,0.0351,0,0,0,0,0,0,0.0265,0.0269,0.0288,0.0288,0.028,0.0292,0.0295,0.03,0.0314,0.0316,0.0309,0.031,0.0326,0.0328,0.0329,0.0344,0.0336,0.0337,0.0337,0.0351,0.0351,0.0351,0,0,0,0,0,0,0.0265,0.0267,0.0287,0.0279,0.0281,0.0293,0.0298,0.03,0.0308,0.0315,0.0317,0.0315,0.0327,0.0328,0.0338,0.0344,0.0337,0.0337,0.0351,0.0351,0.0351,0.0361,0,0,0,0,0,0,0.0264,0.0267,0.0271,0.0279,0.0281,0.0293,0.0298,0.03,0.0308,0.0309,0.0321,0.0322,0.0327,0.0337,0.0339,0.0344,0.0338,0.0351,0.0351,0.0351,0.0361,0.0362,0.0363,0,0,0,0,0,0.0263,0.0268,0.0271,0.0274,0.0287,0.0293,0.0295,0.0304,0.0308,0.0312,0.0321,0.0322,0.034,0.0338,0.0339,0.0345,0.0351,0.0351,0.0351,0.0361,0.0362,0.0363,0,0,0,0,0,0,0.026,0.027,0.0274,0.0282,0.0288,0.0296,0.03,0.0305,0.0315,0.0318,0.0325,0.0327,0.0338,0.0338,0.0336,0.0349,0.0345,0.0345,0.0351,0.0353,0.0353,0.0356,0.0338,0,0,0,0,0,0.0261,0.0268,0.0276,0.0282,0.0285,0.0293,0.0297,0.0303,0.0311,0.0316,0.0323,0.0331,0.0338,0.0343,0.0349,0.0356,0.0346,0.036,0.0361,0.0361,0.0364,0.0353,0.0353,0.0352,0.0352,0.0352,0,0,0.0261,0.0268,0.0272,0.0282,0.0288,0.0295,0.0297,0.0304,0.0313,0.0315,0.0331,0.0334,0.0341,0.0351,0.0355,0.0353,0.0355,0.0362,0.0362,0.0364,0.0354,0.0354,0.0354,0.0352,0.0352,0.0352,0,0,0.0263,0.0271,0.0278,0.0284,0.0292,0.0298,0.03,0.0309,0.0317,0.0328,0.0334,0.034,0.0351,0.0358,0.0362,0.037,0.036,0.0371,0.0379,0.0369,0.0369,0.0369,0.0349,0.0347,0.0372,0.0372,0.0372,0,0.0263,0.0275,0.028,0.0288,0.0296,0.03,0.031,0.0316,0.0328,0.0338,0.0335,0.0352,0.0355,0.0369,0.0373,0.0372,0.0361,0.0375,0.037,0.037,0.0369,0.0349,0.0347,0.0372,0.0372,0.0372,0.0372,0,0.027,0.0282,0.0286,0.03,0.0308,0.0317,0.0326,0.0335,0.0343,0.0351,0.0365,0.0365,0.0377,0.0376,0.0378,0.0381,0.0372,0.0371,0.0367,0.037,0.0349,0.0346,0.0373,0.0373,0.0373,0.0373,0,0,0.0266,0.0287,0.029,0.0303,0.0317,0.0327,0.0341,0.0359,0.0374,0.0376,0.0392,0.0398,0.0397,0.0401,0.0399,0.039,0.0375,0.0381,0.038,0.0361,0.0344,0.0331,0.0327,0.0373,0.0373,0.0373,0.0327,0,0.0272,0.0291,0.0301,0.0325,0.0337,0.035,0.0366,0.0382,0.0393,0.0406,0.0404,0.0416,0.0407,0.0412,0.04,0.0387,0.037,0.0387,0.0345,0.0343,0.0331,0.0324,0.0373,0.0325,0.0325,0.0324,0.0324,0,0.0277,0.0291,0.0314,0.0346,0.0353,0.0368,0.04,0.0416,0.0433,0.0441,0.0446,0.0443,0.0437,0.0423,0.0392,0.0403,0.0374,0.0354,0.0352,0.0336,0.0326,0.0323,0.0319,0.032,0.032,0.032,0.0321,0,0.0275,0.0303,0.0325,0.0334,0.0366,0.0384,0.0404,0.0429,0.0451,0.0464,0.0473,0.0464,0.0461,0.0426,0.0387,0.039,0.0341,0.034,0.0296,0.0294,0.0315,0.0316,0.0307,0.0307,0.0307,0.0307,0.0308,0,0.0279,0.0298,0.0328,0.034,0.0373,0.0393,0.0431,0.0448,0.0475,0.0499,0.0492,0.0496,0.0462,0.0431,0.0388,0.0333,0.034,0.0294,0.0282,0.0319,0.0321,0.0313,0.0314,0.0306,0.0306,0.0306,0.0307,0,0.0275,0.0293,0.0321,0.0358,0.0374,0.0399,0.0452,0.0477,0.0499,0.0525,0.0529,0.0523,0.0485,0.0437,0.0379,0.0339,0.0286,0.0261,0.0296,0.0288,0.0243,0.0245,0.0209,0.0209,0.0208,0.0207,0.0207,0,0.0274,0.0288,0.0333,0.0355,0.0375,0.0417,0.0447,0.0486,0.0514,0.0538,0.0547,0.0524,0.0506,0.0411,0.0363,0.0275,0.0262,0.0227,0.0241,0.0241,0.0234,0.0237,0.024,0.0206,0.0206,0.0205,0.0205,0,0.0274,0.0291,0.0316,0.0358,0.0395,0.0438,0.0483,0.0502,0.0542,0.0559,0.0555,0.0514,0.0469,0.0406,0.0336,0.0274,0.025,0.022,0.0221,0.0234,0.0236,0.023,0.0234,0.0203,0.0203,0.0203,0.0203,0,0.0276,0.0291,0.0323,0.0362,0.0406,0.0446,0.0473,0.0503,0.0532,0.0556,0.0551,0.0509,0.0492,0.0404,0.0341,0.028,0.0266,0.0241,0.0241,0.0243,0.027,0.0278,0.0246,0,0,0,0,0,0.0276,0.0293,0.0326,0.0368,0.0411,0.0439,0.0492,0.0515,0.0547,0.0542,0.0549,0.0505,0.0423,0.0394,0.0329,0.0326,0.0254,0.0247,0.0224,0.0189,0.0192,0.0216,0,0,0,0,0,0,0.0276,0.0304,0.032,0.0365,0.0393,0.0444,0.0478,0.0501,0.0502,0.0521,0.048,0.0475,0.0397,0.0453,0.0321,0.0306,0.0279,0.0217,0.0215,0.0188,0.019,0.0192,0.0218,0,0,0,0,0]}]]